Weather History for Maple Lake, MN

Change the Weather History Date:

Wednesday, May 22, 2013

  Actual Average (KSTC) Record (KSTC)
Temperature  
Mean Temperature 48 °F 58 °F  
Max Temperature 51 °F 71 °F 94 °F (1964)
Min Temperature 44 °F 46 °F 28 °F (1963)
Degree Days  
Heating Degree Days 18 8  
Month to date heating degree days 230  
Since 1 July heating degree days 8397  
Cooling Degree Days 0 1  
Month to date cooling degree days 14  
Year to date cooling degree days 16  
Moisture  
Dew Point 46 °F    
Average Humidity 94    
Maximum Humidity 99    
Minimum Humidity 82    
Precipitation  
Precipitation 0.04 in 0.10 in 3.17 in (1962)
Month to date precipitation 2.06  
Year to date precipitation 7.42  
Snow  
Snow 0.00 in 0.00 in 0.00 in ()
Month to date snowfall 0.0  
Since 1 July snowfall 45.7  
Snow Depth -    
Sea Level Pressure  
Sea Level Pressure 29.83 in    
Wind  
Wind Speed 9 mph (NNE)    
Max Wind Speed 14 mph    
Max Gust Speed 22 mph    
Visibility 9 miles    
Events Rain    
T = Trace of Precipitation, MM = Missing Value Source: NWS Daily Summary

Daily Weather History Graph

Daily Weather History Graph

Search for Another Location

Airport:

Trip Planner

Search our weather history database for the weather conditions in past years. The results will help you decide how hot, cold, wet, or windy it might be!

Date:

Astronomy

May. 22, 2013 Rise Set
Actual Time 5:38 AM CDT 8:47 PM CDT
Civil Twilight 5:03 AM CDT 9:22 PM CDT
Nautical Twilight 4:17 AM CDT 10:08 PM CDT
Astronomical Twilight 3:22 AM CDT 11:04 PM CDT
Moon 6:04 PM CDT (5/22) 3:51 AM CDT (5/22)
Length of Visible Light 16h 19m
Length of Day
15h 08m
Waxing Gibbous, 91% of the Moon is Illuminated
May 22
Waxing Gibbous
May 24
Full
May 31
Last Quarter
Jun 8
New
Jun 16
First Quarter

Hourly Weather History & Observations

Time (CDT) Temp. Windchill Dew Point Humidity Pressure Visibility Wind Dir Wind Speed Gust Speed Precip Events Conditions
12:16 AM 46.0 °F 41.9 °F 45.5 °F 98% 29.74 in 4.0 mi North 8.1 mph - N/A   Light Drizzle
12:37 AM 45.9 °F 41.7 °F 45.1 °F 97% 29.74 in 5.0 mi NNE 8.1 mph - N/A   Overcast
12:56 AM 45.9 °F 41.2 °F 45.1 °F 97% 29.74 in 5.0 mi NNE 9.2 mph - N/A   Light Drizzle
1:16 AM 45.5 °F 41.3 °F 45.0 °F 98% 29.74 in 7.0 mi NE 8.1 mph - N/A   Overcast
1:36 AM 45.5 °F 40.3 °F 44.8 °F 97% 29.74 in 5.0 mi NE 10.4 mph - N/A   Drizzle
1:57 AM 45.3 °F 41.1 °F 44.6 °F 97% 29.74 in 7.0 mi NNE 8.1 mph - N/A   Overcast
2:16 AM 45.5 °F 41.8 °F 44.8 °F 97% 29.73 in 5.0 mi NNE 6.9 mph - N/A   Overcast
2:36 AM 45.0 °F 39.7 °F 44.6 °F 99% 29.74 in 7.0 mi NE 10.4 mph - N/A   Overcast
2:57 AM 44.8 °F 40.4 °F 44.2 °F 98% 29.73 in 5.0 mi NNE 8.1 mph - 0.01 in   Drizzle
3:16 AM 44.6 °F 40.2 °F 44.1 °F 98% 29.73 in 7.0 mi NNE 8.1 mph - N/A   Drizzle
3:36 AM 44.6 °F 39.7 °F 43.7 °F 97% 29.73 in 7.0 mi NNE 9.2 mph - N/A Rain Rain
3:57 AM 44.4 °F 39.5 °F 43.7 °F 97% 29.74 in 7.0 mi NE 9.2 mph - N/A   Drizzle
4:16 AM 44.6 °F 39.7 °F 43.7 °F 97% 29.74 in 10.0 mi NNE 9.2 mph - N/A   Overcast
4:37 AM 44.6 °F 40.2 °F 43.7 °F 97% 29.75 in 10.0 mi NNE 8.1 mph - N/A   Overcast
4:56 AM 44.6 °F 40.2 °F 43.7 °F 97% 29.75 in 10.0 mi NE 8.1 mph - N/A   Overcast
5:16 AM 44.6 °F 40.2 °F 43.7 °F 97% 29.75 in 10.0 mi NE 8.1 mph - N/A   Overcast
5:36 AM 44.4 °F 40.0 °F 43.7 °F 97% 29.75 in 10.0 mi NNE 8.1 mph - N/A   Overcast
5:56 AM 44.2 °F 39.7 °F 43.7 °F 98% 29.75 in 10.0 mi NE 8.1 mph - N/A   Overcast
6:17 AM 44.2 °F 39.7 °F 43.7 °F 98% 29.75 in 10.0 mi NNE 8.1 mph - N/A   Overcast
6:36 AM 44.2 °F 39.2 °F 43.7 °F 98% 29.75 in 10.0 mi NNE 9.2 mph - N/A   Overcast
6:56 AM 44.4 °F 39.5 °F 43.7 °F 97% 29.75 in 10.0 mi NNE 9.2 mph - N/A   Overcast
7:16 AM 44.6 °F 38.8 °F 44.1 °F 98% 29.75 in 10.0 mi NE 11.5 mph 16.1 mph N/A   Overcast
7:37 AM 44.8 °F 39.9 °F 44.2 °F 98% 29.75 in 10.0 mi NNE 9.2 mph - N/A   Overcast
7:56 AM 44.8 °F 39.9 °F 44.6 °F 99% 29.76 in 7.0 mi NNE 9.2 mph - N/A   Overcast
8:16 AM 44.8 °F 40.4 °F 44.6 °F 99% 29.76 in 7.0 mi NE 8.1 mph - N/A   Overcast
8:36 AM 45.0 °F 40.6 °F 44.6 °F 99% 29.76 in 4.0 mi NNE 8.1 mph - N/A   Overcast
8:56 AM 45.5 °F 39.9 °F 45.3 °F 99% 29.77 in 5.0 mi NNE 11.5 mph - N/A   Overcast
9:17 AM 45.5 °F 40.3 °F 45.1 °F 99% 29.77 in 7.0 mi NNE 10.4 mph 17.3 mph N/A   Overcast
9:36 AM 45.7 °F 41.0 °F 45.5 °F 99% 29.78 in 7.0 mi North 9.2 mph - N/A   Overcast
9:56 AM 45.9 °F 39.7 °F 45.5 °F 99% 29.78 in 10.0 mi NNE 13.8 mph 18.4 mph N/A   Overcast
10:16 AM 45.9 °F 40.8 °F 45.5 °F 99% 29.78 in 10.0 mi NNE 10.4 mph 19.6 mph N/A   Overcast
10:36 AM 46.4 °F 41.1 °F 45.9 °F 98% 29.78 in 10.0 mi NNE 11.5 mph - 0.01 in   Overcast
10:56 AM 46.8 °F - 45.9 °F 97% 29.79 in 10.0 mi NNE 9.2 mph 17.3 mph 0.01 in   Overcast
11:17 AM 47.5 °F - 46.4 °F 96% 29.80 in 10.0 mi NNE 11.5 mph - N/A Rain Light Rain
11:36 AM 48.4 °F - 47.3 °F 96% 29.80 in 10.0 mi NE 9.2 mph - N/A Rain Rain
11:56 AM 48.7 °F - 47.3 °F 95% 29.80 in 10.0 mi NNE 10.4 mph - N/A Rain Rain
12:17 PM 49.6 °F - 48.2 °F 95% 29.80 in 10.0 mi NNE 10.4 mph - N/A   Light Drizzle
12:36 PM 50.2 °F - 48.7 °F 95% 29.81 in 10.0 mi NNE 12.7 mph 18.4 mph N/A Rain Light Rain
12:57 PM 50.9 °F - 49.1 °F 94% 29.81 in 10.0 mi NNE 11.5 mph - N/A   Drizzle
1:16 PM 51.1 °F - 49.5 °F 94% 29.82 in 10.0 mi NNE 12.7 mph 16.1 mph N/A   Light Drizzle
1:36 PM 51.3 °F - 48.9 °F 92% 29.82 in 10.0 mi NNE 12.7 mph 21.9 mph N/A   Light Drizzle
1:57 PM 51.1 °F - 48.9 °F 92% 29.82 in 10.0 mi NNE 8.1 mph 18.4 mph N/A Rain Light Rain
2:16 PM 50.9 °F - 48.7 °F 92% 29.83 in 10.0 mi NNE 11.5 mph - N/A Rain Light Rain
2:36 PM 51.1 °F - 48.9 °F 92% 29.84 in 10.0 mi NNE 10.4 mph 18.4 mph N/A Rain Light Rain
2:56 PM 50.9 °F - 48.4 °F 91% 29.84 in 10.0 mi NNE 12.7 mph 17.3 mph N/A Rain Light Rain
3:17 PM 50.7 °F - 48.4 °F 92% 29.85 in 10.0 mi NNE 13.8 mph 18.4 mph N/A Rain Light Rain
3:36 PM 50.9 °F - 48.7 °F 92% 29.85 in 10.0 mi NNE 10.4 mph 21.9 mph N/A Rain Light Rain
3:56 PM 50.4 °F - 48.6 °F 94% 29.86 in 10.0 mi NNE 12.7 mph 20.7 mph N/A Rain Light Rain
4:17 PM 50.4 °F - 48.7 °F 94% 29.86 in 10.0 mi NNE 8.1 mph - N/A   Drizzle
4:36 PM 50.4 °F - 48.7 °F 94% 29.87 in 10.0 mi NNE 13.8 mph - N/A Rain Light Rain
4:57 PM 50.7 °F - 48.9 °F 94% 29.87 in 10.0 mi NNE 11.5 mph 20.7 mph 0.01 in Rain Light Rain
5:16 PM 50.2 °F - 48.6 °F 94% 29.88 in 10.0 mi NNE 13.8 mph 19.6 mph N/A Rain Light Rain
5:36 PM 50.2 °F - 48.6 °F 94% 29.89 in 10.0 mi NNE 13.8 mph 19.6 mph N/A   Light Drizzle
5:56 PM 50.0 °F - 48.4 °F 94% 29.89 in 10.0 mi NNE 12.7 mph 21.9 mph N/A   Light Drizzle
6:16 PM 50.0 °F - 48.4 °F 94% 29.90 in 10.0 mi NNE 11.5 mph 19.6 mph N/A   Drizzle
6:36 PM 49.5 °F - 48.2 °F 95% 29.91 in 10.0 mi NNE 13.8 mph 19.6 mph N/A Rain Light Rain
6:56 PM 49.1 °F - 47.7 °F 95% 29.92 in 10.0 mi NNE 9.2 mph 17.3 mph N/A Rain Light Rain
7:16 PM 49.1 °F - 47.7 °F 95% 29.93 in 10.0 mi NNE 12.7 mph 19.6 mph N/A   Light Drizzle
7:36 PM 49.3 °F - 47.5 °F 94% 29.93 in 10.0 mi NE 11.5 mph 18.4 mph N/A   Light Drizzle
7:57 PM 50.0 °F - 47.7 °F 92% 29.93 in 10.0 mi NE 10.4 mph - N/A   Light Drizzle
8:16 PM 50.7 °F - 47.7 °F 89% 29.94 in 10.0 mi NE 13.8 mph 18.4 mph N/A   Overcast
8:37 PM 50.9 °F - 47.5 °F 88% 29.95 in 10.0 mi NE 10.4 mph 16.1 mph N/A   Overcast
8:56 PM 51.1 °F - 47.1 °F 86% 29.95 in 10.0 mi NNE 10.4 mph 16.1 mph N/A   Overcast
9:16 PM 51.1 °F - 46.6 °F 85% 29.97 in 10.0 mi NNE 9.2 mph - N/A   Overcast
9:36 PM 51.1 °F - 46.4 °F 84% 29.98 in 10.0 mi NNE 10.4 mph - N/A   Overcast
9:55 PM 51.3 °F - 45.9 °F 82% 29.99 in 10.0 mi NNE 6.9 mph - N/A   Overcast
10:16 PM 50.5 °F - 45.9 °F 84% 30.00 in 10.0 mi NNE 6.9 mph - N/A   Mostly Cloudy
10:36 PM 49.5 °F - 45.5 °F 86% 30.01 in 10.0 mi NNE 5.8 mph - N/A   Scattered Clouds
10:57 PM 49.1 °F - 44.6 °F 84% 30.02 in 10.0 mi NNE 5.8 mph - N/A   Clear
11:16 PM 48.4 °F - 44.1 °F 85% 30.02 in 10.0 mi North 6.9 mph - N/A   Clear
11:36 PM 48.0 °F - 44.6 °F 88% 30.02 in 10.0 mi North 4.6 mph - 0.01 in   Clear
11:56 PM 47.1 °F - 44.1 °F 89% 30.03 in 10.0 mi North 4.6 mph - 0.01 in   Clear